Regional Weather Roundup
Issued by NWS Albany, NY

Home | Current Version | Previous Version | Text Only | Print | Product List | Glossary On
Versions: 1 2 3 4 5 6 7 8 9 10 11 12 13 14 15 16 17 18 19 20 21 22 23 24 25 26 27
000
ASUS41 KALY 010810
RWRALY

NEW YORK STATE HOURLY WEATHER ROUNDUP
NATIONAL WEATHER SERVICE ALBANY NY
400 AM EDT SUN MAY 01 2016

NOTE: "FAIR" INDICATES FEW OR NO CLOUDS BELOW 12,000 FEET WITH NO
SIGNIFICANT WEATHER AND/OR NO OBSTRUCTIONS TO VISIBILITY.

NYZ032-033-038>043-046>054-057>066-NYZ062>081-082-084-010900-
EAST


CITY           SKY/WX    TMP DP  RH WIND       PRES   REMARKS
ALBANY         CLOUDY    52  36  54 S7        30.16F
GLENS FALLS    CLOUDY    46  34  62 CALM      30.17F
POUGHKEEPSIE   CLOUDY    50  37  61 SE5       30.18F
MONTGOMERY     CLOUDY    48  38  68 S5        30.17F
WHITE PLAINS   CLOUDY    47  38  71 CALM      30.19S
ISLIP          CLOUDY    48  37  65 E5        30.21R
NEW YORK CITY  CLOUDY    50  35  56 S3        30.20S
CENTRAL PARK   CLOUDY    50  32  50 CALM      30.22S
$$

NYZ005>009-017-018-044>046-055-056-010900-
CENTRAL


CITY           SKY/WX    TMP DP  RH WIND       PRES   REMARKS
FULTON         LGT RAIN  51  42  71 CALM      30.09F
SYRACUSE       LGT RAIN  51  42  71 E7        30.09F
ROME           CLOUDY    51  43  74 E6        30.13F
ELMIRA         LGT RAIN  48  45  89 SE6       30.06F FOG
BINGHAMTON     LGT RAIN  45  43  93 S8        30.10S FOG
MONTICELLO     CLOUDY    46  36  66 S6        30.17R
$$

NYZ026>034-041>043-087-010900-
NORTH


CITY           SKY/WX    TMP DP  RH WIND       PRES   REMARKS
WATERTOWN      CLOUDY    49  31  49 E3        30.10F
FORT DRUM      NOT AVBL
MASSENA        CLOUDY    47  19  33 NE9       30.17F
SARANAC LAKE   CLOUDY    42  13  30 NE5       30.13F
PLATTSBURGH    CLOUDY    39  28  64 CALM      30.17F
$$

NYZ001>004-010>016-019>021-085-010900-
WEST


CITY           SKY/WX    TMP DP  RH WIND       PRES   REMARKS
NIAGARA FALLS  LGT RAIN  49  43  80 E8        30.00F
BUFFALO        LGT RAIN  49  46  90 E9        30.00F
DUNKIRK        HVY RAIN  49  47  93 E7        29.96F FOG
JAMESTOWN      CLOUDY    46  43  87 E9        29.93F
WELLSVILLE     RAIN      46  44  93 SE9       30.00F FOG
ROCHESTER      LGT RAIN  50  45  83 E8        30.05F
PENN YAN       LGT RAIN  48  45  89 VRB5      30.06F FOG
$$

             KEY
       WCI = WIND CHILL INDEX
       VSB = VISIBILITY
       HX  = HEAT INDEX
$$




USA.gov is the U.S. government's official web portal to all federal, state and local government web resources and services.